This is the latest recevied weather packets stored in our database for station/object KK7RJD. If no packets are shown the sender has not sent any weather packets the latest 10 day(s).
| Time | Temp. | Humidity | Pressure | Rain* | Wind** | Luminosity | Snow |
|---|---|---|---|---|---|---|---|
| 1777900733 | 7.78° C | 52% | 1012.4 hPa | 0 mm | - | 77 W/m² | - |
| 1777900429 | 7.78° C | 51% | 1012.4 hPa | 0 mm | - | 70 W/m² | - |
| 1777900126 | 7.78° C | 51% | 1012.3 hPa | 0 mm | - | 61 W/m² | - |
| 1777899823 | 7.78° C | 51% | 1012 hPa | 0 mm | - | 55 W/m² | - |
| 1777899520 | 7.78° C | 51% | 1011.9 hPa | 0 mm | - | 49 W/m² | - |
| 1777899217 | 7.78° C | 51% | 1011.9 hPa | 0 mm | - | 45 W/m² | - |
| 1777898915 | 7.78° C | 52% | 1011.7 hPa | 0 mm | - | 41 W/m² | - |
| 1777898612 | 7.78° C | 51% | 1011.7 hPa | 0 mm | - | 36 W/m² | - |
| 1777898309 | 7.78° C | 51% | 1011.3 hPa | 0 mm | - | 30 W/m² | - |
| 1777898006 | 7.78° C | 51% | 1011.5 hPa | 0 mm | - | 25 W/m² | - |
| 1777897702 | 7.78° C | 50% | 1011.6 hPa | 0 mm | - | 20 W/m² | - |
| 1777897399 | 7.78° C | 51% | 1011.5 hPa | 0 mm | - | 15 W/m² | - |
| 1777897095 | 8.33° C | 50% | 1011.5 hPa | 0 mm | - | 11 W/m² | - |
| 1777896791 | 8.33° C | 50% | 1011.2 hPa | 0 mm | - | 8 W/m² | - |
| 1777896489 | 8.33° C | 50% | 1011.2 hPa | 0 mm | - | 5 W/m² | - |
| 1777896186 | 8.33° C | 49% | 1011.3 hPa | 0 mm | - | 3 W/m² | - |
| 1777895884 | 8.33° C | 50% | 1011.2 hPa | 0 mm | - | 2 W/m² | - |
| 1777895581 | 8.33° C | 51% | 1011 hPa | 0 mm | - | 1 W/m² | - |
| 1777895278 | 8.89° C | 51% | 1010.8 hPa | 0 mm | - | 0 W/m² | - |
| 1777894976 | 8.89° C | 51% | 1010.9 hPa | 0 mm | - | 0 W/m² | - |
| 1777894673 | 8.89° C | 51% | 1011 hPa | 0 mm | - | 0 W/m² | - |
| 1777894369 | 8.89° C | 50% | 1010.8 hPa | 0 mm | - | 0 W/m² | - |
| 1777894068 | 8.89° C | 50% | 1010.5 hPa | 0 mm | - | 0 W/m² | - |
| 1777893764 | 8.89° C | 49% | 1010.8 hPa | 0 mm | - | 0 W/m² | - |
| 1777893460 | 8.89° C | 49% | 1010.5 hPa | 0 mm | - | 0 W/m² | - |
* Rain latest hour (hover to see other rain measurements)
** Current wind speed in m/s (hover to see current wind gust speed)